Location: Lhota
(50.0887°N, 14.0116°E)
Time: 22:07:46
(UTC+00:00)

Nadezhda 3 Rocket - Pass Details

Date: 19 May 2025
Orbit: 957 x 997 km, 82.9° (Epoch: 15 June)

Event Time Altitude Azimuth Distance (km) Brightness Sun altitude
Exits shadow 21:21:59 24° 170° (S) 1,862 4.9 -16.6°
Maximum altitude 21:25:45 67° 94° (E) 1,046 4.0 -16.9°
Drops below altitude 10° 21:31:57 10° 14° (NNE) 2,736 7.1 -17.3°
Sets 21:34:30 0° 12° (NNE) 3,694 8.0 -17.4°
